Location: Newark
(20.0000°S, 47.0000°E)
Time: 13:13:09
(UTC+00:00)

N. Korean satellite - Pass Details

Date: 20 August 2020
Orbit: 455 x 503 km, 97.2° (Epoch: 20 September)

Event Time Altitude Azimuth Distance (km) Brightness Sun altitude
Rises 02:29:01 0° 347° (NNW) 2,578 10.2 -10.3°
Reaches altitude 10° 02:31:23 10° 332° (NNW) 1,705 9.1 -9.7°
Maximum altitude 02:34:21 23° 278° (W) 1,108 7.8 -9.0°
Drops below altitude 10° 02:37:21 10° 224° (SW) 1,723 8.9 -8.3°
Sets 02:39:46 0° 209° (SSW) 2,612 9.9 -7.8°
